Theta_e
311 311 311 311 311 311 312 312 312 313 313 313 312 312 312 312 313 308 301 307 310 314 314 312 311 313 316 315 319 317 306 303 305 306 307 313 311 316 319 317 322 326 327 330 334
310 310 310 310 310 310 311 311 311 312 312 312 311 311 311 310 306 301 307 313 313 312 306 307 306 309 310 313 316 311 306 305 310 311 309 312 312 314 314 315 319 324 328 333 332
310 310 310 310 310 310 310 311 311 311 312 311 310 311 311 306 297 299 310 312 312 309 306 310 309 307 307 312 314 311 306 311 312 313 313 311 311 313 312 311 317 320 326 330 327
309 309 309 309 309 310 310 311 311 311 310 309 310 311 309 298 285 298 309 309 309 305 306 307 304 300 303 305 311 307 311 312 313 315 312 310 313 311 312 314 320 324 329 329 325
308 309 309 308 310 310 311 310 310 309 308 309 310 309 302 291 292 302 308 305 302 302 301 303 301 299 298 304 308 307 309 311 313 313 311 312 310 310 311 315 317 320 327 327 328
307 308 308 309 310 311 310 309 308 307 309 309 310 308 296 287 301 304 302 300 299 300 298 302 301 303 300 301 302 305 307 308 311 310 311 308 309 312 312 315 315 316 319 325 328
307 307 309 309 310 309 308 307 306 308 308 309 308 302 293 291 302 302 300 300 299 298 296 298 304 301 301 296 303 302 299 305 306 309 308 311 305 308 313 315 313 314 317 320 325
308 308 309 309 309 307 306 305 306 308 307 308 307 300 290 301 303 300 301 299 301 300 298 299 303 301 299 302 299 296 299 295 304 307 310 307 301 310 315 313 313 314 317 319 321
308 308 309 309 308 306 306 304 303 306 302 305 299 297 289 302 297 299 301 296 298 298 301 300 298 296 297 292 289 292 288 291 295 306 307 306 302 309 314 313 312 314 314 317 321
309 309 309 309 307 305 305 301 300 302 300 300 298 291 293 291 297 298 301 299 294 295 293 294 294 290 291 288 281 285 286 289 291 299 303 301 302 307 311 312 313 314 314 315 317
310 310 310 309 306 304 303 300 294 292 294 289 290 290 292 296 299 295 299 296 295 292 286 289 285 283 286 289 289 289 288 288 292 299 295 296 298 302 309 310 310 312 313 314 315
310 310 309 308 304 303 301 293 292 295 287 291 291 292 295 296 290 293 299 290 289 284 287 285 281 285 286 285 285 285 284 285 291 294 292 292 293 298 302 306 310 311 312 313 315
310 310 309 307 301 301 297 295 301 299 288 287 290 291 291 293 288 290 295 291 286 284 284 281 283 286 284 283 281 282 282 283 284 289 292 290 288 291 297 301 304 307 312 314 314
310 308 305 303 299 298 295 299 300 299 286 281 285 290 291 291 286 294 296 291 287 282 284 283 285 284 283 281 282 278 285 284 283 283 280 290 280 289 293 294 299 302 305 310 313
309 305 303 303 299 296 297 300 299 295 274 282 285 293 291 286 288 289 295 291 284 283 284 281 282 282 281 282 284 280 285 285 285 282 283 283 281 286 292 291 295 298 304 307 312
309 305 301 302 302 299 300 298 294 283 273 279 284 283 284 286 286 288 288 291 290 285 285 284 288 286 284 286 286 286 283 282 283 282 275 281 281 282 287 291 294 298 301 303 307
307 302 301 301 297 300 298 293 284 277 280 279 280 282 282 281 282 283 282 282 280 276 278 282 283 286 287 283 286 285 280 274 272 273 272 282 280 283 290 292 295 298 301 304 306
304 301 299 299 300 298 295 287 276 276 278 281 281 282 277 280 280 281 280 279 282 282 278 276 274 282 286 283 281 282 281 274 269 271 275 282 276 283 293 296 297 298 300 301 302
302 300 300 299 299 297 290 281 280 280 281 279 281 277 278 277 278 279 279 278 281 283 276 275 275 284 284 285 285 280 277 283 276 277 273 277 282 287 292 291 294 296 298 300 302
300 297 295 299 298 295 284 282 281 282 282 282 276 278 275 277 276 277 278 281 280 284 284 280 272 280 283 287 286 283 284 276 277 268 268 274 278 280 286 288 291 293 294 297 301
299 292 295 298 296 287 282 283 279 282 284 281 279 278 278 276 277 277 278 281 283 283 284 280 276 277 282 280 280 280 279 279 279 277 271 270 276 288 288 290 290 291 294 295 297
296 285 294 296 285 283 282 279 280 282 283 282 282 281 279 279 277 277 277 280 285 285 279 282 278 272 275 282 284 283 280 280 274 273 276 275 275 288 288 289 291 291 292 295 296
290 288 294 293 283 282 279 278 280 280 282 281 280 282 282 279 275 278 279 284 284 283 281 282 276 270 273 279 283 279 281 282 280 278 274 272 275 288 288 289 290 290 292 294 295
291 284 286 288 282 281 279 279 279 282 282 283 282 283 281 278 281 277 278 282 284 284 286 284 277 273 270 273 278 274 276 278 277 271 273 274 276 282 285 287 289 291 292 293 294
292 286 282 282 282 281 279 278 277 277 281 282 280 280 279 275 276 277 280 281 283 285 284 282 273 275 277 277 277 276 274 275 274 275 272 275 276 281 284 287 288 291 292 292 293
288 285 282 277 280 280 279 279 278 279 280 278 278 280 281 276 278 276 278 279 278 281 280 282 274 276 272 276 276 274 276 276 276 277 277 277 277 284 287 288 288 289 291 291 292
292 289 289 281 280 279 281 281 279 281 282 282 281 280 278 280 284 284 284 283 282 280 278 278 276 273 269 275 273 269 273 275 276 279 279 275 281 287 285 287 289 290 291 292 293
Wind_Speed
15 16 17 16 15 16 16 18 20 20 20 20 20 20 21 21 17 8 11 12 13 20 22 16 9 7 7 7 9 5 11 14 18 17 13 8 9 7 1 6 6 4 5 5 21
13 13 12 13 14 15 15 16 17 18 20 21 21 20 19 19 5 9 14 19 19 18 14 13 9 7 8 10 8 12 13 21 18 16 11 11 11 8 7 9 9 8 5 14 18
14 14 17 16 16 15 17 17 17 18 19 21 21 21 19 12 8 7 18 19 21 18 12 11 10 8 12 14 16 11 20 18 22 15 13 13 11 6 10 10 10 14 12 17 15
11 11 12 14 14 14 15 16 16 17 19 19 18 18 22 5 7 9 19 18 18 15 11 9 8 11 10 17 16 18 18 21 18 10 12 17 14 13 14 11 5 2 17 16 18
10 12 14 15 17 16 15 16 17 18 17 14 14 17 9 7 7 11 15 18 15 13 9 9 8 9 14 11 14 15 19 19 19 14 12 15 17 16 16 15 6 7 12 16 16
10 11 13 15 16 19 21 21 20 16 12 12 12 15 5 6 6 11 14 14 13 14 9 7 6 7 13 6 12 3 10 15 13 15 19 16 19 20 16 14 12 11 12 15 17
9 10 11 14 17 18 19 20 15 11 9 9 12 8 3 9 10 12 15 14 8 11 12 8 7 9 4 8 7 7 9 14 19 17 14 16 24 26 19 15 17 16 13 13 16
10 12 15 17 18 19 19 14 7 8 9 3 9 5 6 8 12 15 15 12 14 10 10 11 8 10 9 9 8 8 14 17 15 20 19 14 23 24 25 22 19 18 15 12 14
11 13 15 17 19 22 23 10 9 7 10 9 6 6 6 9 17 14 14 13 17 8 6 6 7 9 4 10 11 14 15 22 22 20 20 23 17 24 21 24 24 21 20 16 14
10 12 14 17 18 22 18 6 6 3 5 3 11 1 12 15 17 14 14 12 8 12 5 4 5 8 7 9 13 14 20 20 18 18 11 19 21 21 16 26 21 23 23 21 19
10 11 12 14 13 19 15 3 3 3 13 8 5 3 10 18 7 10 16 13 8 4 8 3 5 8 8 9 12 14 14 15 16 6 6 15 20 20 22 21 16 20 21 22 23
7 8 8 9 9 14 7 6 5 5 6 4 3 4 6 7 12 13 16 10 9 8 11 6 6 7 7 7 11 13 14 15 15 15 14 19 25 21 22 23 22 19 18 20 21
6 7 6 8 3 3 11 8 5 5 1 4 3 5 7 9 9 11 13 11 9 9 10 10 8 5 7 8 8 11 14 14 16 11 17 19 28 27 25 24 23 23 22 21 18
5 3 6 8 4 2 5 4 4 5 2 8 5 4 6 12 3 6 7 5 4 8 12 6 4 7 9 8 6 11 8 9 14 12 11 8 18 18 23 32 29 25 24 22 22
3 3 6 9 3 3 4 3 3 3 2 8 3 4 13 4 9 4 5 6 9 10 5 3 8 9 11 8 4 6 5 10 10 13 14 19 15 9 19 20 15 25 23 23 23
4 4 1 1 2 4 3 2 3 2 3 3 3 7 10 3 5 7 5 3 7 8 9 15 13 9 8 8 7 7 9 9 11 10 11 18 17 12 15 16 13 17 18 19 22
9 6 2 2 3 4 4 3 2 2 3 1 2 5 9 6 6 6 11 8 7 6 6 13 7 4 5 8 7 7 6 4 6 8 11 7 15 20 14 19 16 12 7 8 9
13 5 6 5 4 5 3 1 2 3 4 2 3 7 4 6 3 8 6 8 1 4 9 7 3 3 4 6 8 8 11 8 8 7 11 12 10 15 5 3 11 14 9 9 8
12 3 2 4 5 3 1 1 1 2 1 4 7 3 2 2 4 6 5 5 3 3 5 6 6 6 14 11 8 2 9 15 17 17 12 9 14 18 11 9 8 7 7 8 10
4 3 2 5 6 2 2 3 3 2 2 2 5 3 3 1 4 3 4 3 3 3 3 5 10 7 7 5 11 14 3 5 8 7 13 11 15 11 8 15 12 10 11 12 10
3 2 4 4 3 3 3 2 3 5 4 4 5 4 6 3 3 4 5 3 6 5 5 3 4 6 8 5 12 6 7 9 6 7 7 13 9 5 14 11 7 11 11 11 11
2 2 3 2 1 0 2 2 1 4 5 5 6 11 9 3 5 5 7 6 6 4 6 5 5 10 17 20 18 10 16 13 7 12 14 15 18 20 21 18 16 15 10 9 9
2 1 2 3 4 4 2 3 4 5 7 6 5 9 3 4 5 10 7 5 8 6 4 4 4 9 12 3 3 5 8 11 13 8 13 16 14 17 21 21 20 14 14 9 8
4 2 1 1 0 1 3 4 4 5 4 5 4 5 6 8 11 7 6 6 6 11 13 5 9 13 14 15 13 16 20 19 12 10 19 16 23 24 24 21 20 20 18 14 8
2 2 1 2 5 4 2 3 4 4 4 7 5 12 8 5 6 11 15 14 12 15 12 6 15 15 18 21 19 22 26 24 19 23 18 26 27 27 25 23 22 20 17 15 10
5 4 2 4 1 5 4 5 6 5 8 6 10 5 12 9 10 16 15 16 13 9 11 10 13 11 14 17 21 25 25 21 26 26 25 27 30 32 27 23 22 19 16 14 13
4 2 3 6 6 4 4 5 5 4 8 7 9 8 11 16 17 19 17 18 17 15 13 8 7 6 16 13 14 20 20 20 20 22 22 22 27 24 21 20 15 16 14 13 10
Wind_Direction
35 30 25 20 13 11 9 6 3 1 358 356 357 351 347 344 317 10 39 338 326 324 317 313 285 273 269 249 240 248 242 238 235 231 245 170 222 165 53 259 219 159 352 81 131
27 28 25 17 15 11 6 2 358 354 351 350 347 347 345 338 315 48 357 339 333 331 321 328 305 313 243 229 214 225 229 238 243 239 235 195 231 192 213 200 210 186 123 131 143
18 18 16 10 3 8 2 356 354 349 348 343 342 342 339 320 280 37 355 340 333 322 306 292 281 259 239 233 215 222 235 233 247 253 269 245 221 221 236 240 228 206 163 158 163
18 10 10 2 354 5 358 349 352 346 344 339 339 342 328 284 320 8 348 335 326 315 305 298 248 229 231 220 231 239 234 242 242 237 248 253 242 227 238 241 14 137 150 166 180
14 5 4 353 357 357 349 351 347 345 342 337 340 341 325 301 21 347 341 340 332 333 333 331 285 257 242 243 232 247 247 233 255 249 238 252 252 239 237 244 157 158 163 181 189
11 3 2 1 355 354 351 342 339 339 343 342 349 328 327 321 344 341 337 334 344 334 325 335 336 316 295 262 235 1 265 273 250 249 241 242 243 245 241 237 202 185 192 196 197
8 8 8 4 0 352 345 339 342 345 341 342 353 347 336 14 336 339 344 325 328 326 322 321 317 288 348 245 251 277 267 248 239 244 242 233 249 241 234 221 223 216 214 207 203
16 13 9 6 359 347 344 340 348 0 3 1 324 331 54 5 333 348 343 333 338 308 291 297 291 285 253 319 257 243 236 247 233 233 231 231 244 227 233 235 222 228 218 200 211
15 12 7 3 358 346 346 340 353 324 354 335 358 342 39 324 353 331 336 330 326 318 302 276 272 271 248 243 242 229 243 227 246 233 224 219 248 245 239 225 236 229 234 218 206
4 1 360 0 358 346 348 323 342 344 334 183 24 261 23 343 334 320 340 328 322 318 267 277 258 254 233 239 237 240 230 244 238 213 223 254 255 254 245 241 226 233 234 235 224
351 350 353 352 356 352 343 263 265 134 36 57 357 354 327 333 320 324 344 320 321 274 332 1 276 249 316 303 322 322 298 292 240 174 312 256 256 257 253 255 245 243 234 236 233
353 344 337 342 4 3 5 48 31 346 79 48 344 299 323 331 309 351 344 1 341 353 339 241 263 31 356 315 294 283 273 267 271 283 285 273 264 261 259 258 258 244 241 247 236
331 341 331 333 342 21 57 47 339 311 316 54 355 320 338 329 333 334 345 328 343 335 343 312 345 313 298 299 282 263 267 272 269 298 294 283 272 260 254 255 257 260 259 248 238
315 348 348 325 252 10 52 0 336 314 175 1 1 56 322 321 261 342 335 328 307 324 329 293 340 314 304 287 294 276 312 285 267 269 262 321 278 258 230 233 231 238 241 250 243
291 91 49 26 358 29 19 327 329 248 340 354 4 331 321 344 322 99 348 293 294 312 294 337 311 307 290 296 290 265 339 298 280 255 269 263 271 277 223 253 245 229 230 235 237
169 134 348 156 85 43 340 297 244 285 25 351 337 343 348 337 328 305 306 233 281 293 266 270 284 285 276 296 277 304 288 254 260 261 254 244 246 265 247 255 246 249 252 237 229
138 89 29 346 26 350 314 258 279 25 31 346 334 338 333 316 318 337 324 323 333 315 315 308 240 250 266 270 214 244 263 259 222 215 241 239 217 247 300 305 301 308 319 319 283
127 116 62 55 3 331 271 4 293 72 257 346 281 306 289 353 305 316 299 308 123 316 297 337 285 207 146 270 302 246 242 258 241 243 289 225 235 234 215 333 292 237 287 294 273
140 102 103 24 355 306 335 251 286 199 129 276 293 258 220 230 284 316 287 280 314 8 318 310 268 334 290 274 245 2 232 257 282 286 280 257 248 263 248 258 263 253 281 301 314
158 167 82 355 342 284 74 259 198 193 175 261 272 242 270 272 296 314 303 199 246 209 13 343 292 287 309 291 244 244 311 261 214 256 250 260 251 255 222 241 257 296 324 342 337
173 237 73 342 275 67 242 241 240 216 211 234 276 272 248 283 243 263 269 229 220 203 211 316 261 283 300 236 279 238 228 219 285 250 270 270 259 7 40 22 13 355 346 330 326
151 232 44 296 204 280 207 200 282 207 199 261 277 269 260 194 259 251 249 235 208 218 262 199 296 287 283 277 271 263 280 256 241 244 248 258 269 302 307 305 273 312 312 319 301
183 149 98 266 216 207 131 246 247 212 196 185 249 234 262 244 257 235 261 266 242 226 243 156 233 300 302 212 86 263 304 290 304 313 277 268 273 281 296 304 294 286 289 296 290
149 219 170 227 82 241 192 209 235 209 242 203 247 242 249 251 232 269 253 275 251 240 242 255 250 248 263 285 319 296 293 283 286 281 274 272 283 279 279 285 289 289 291 293 277
194 203 26 197 224 197 214 153 210 219 214 221 244 218 202 248 257 246 258 270 276 247 234 248 262 259 260 272 283 282 276 274 263 256 257 268 274 273 276 273 283 292 293 285 273
165 176 176 110 163 189 187 219 225 227 178 219 228 243 221 234 225 282 287 286 276 258 243 229 267 281 267 270 272 273 270 266 260 254 254 254 262 260 272 283 276 280 297 284 262
131 141 246 145 155 201 210 242 227 208 227 233 226 263 257 258 265 271 272 270 267 272 260 236 255 270 278 291 312 284 259 241 246 244 240 248 253 268 273 275 270 274 281 277 265